Location: Unspecified
(41.9031°N, 12.4386°E)
Time: 17:04:42
(UTC+02:00)

ISS - Pass Details

Date: 29 May 2020
Orbit: 417 x 420 km, 51.6° (Epoch: 26 May)

Event Time Altitude Azimuth Distance (km) Brightness Sun altitude
Rises 22:22:41 0° 307° (NW) 2,366 1.7 -15.8°
Reaches altitude 10° 22:24:49 10° 312° (NW) 1,500 0.4 -16.0°
Maximum altitude 22:28:07 52° 30° (NNE) 526 -3.2 -16.4°
Enters shadow 22:29:24 31° 91° (E) 758 -2.8 -16.5°
